Location: Ward Pound Ridge Reservation
(41.2500°N, 73.6000°W)
Time: 08:05:12
(UTC-04:00)

N. Korean satellite - Pass Details

Date: 09 October 2017
Orbit: 459 x 517 km, 97.2° (Epoch: 22 October)

Event Time Altitude Azimuth Distance (km) Brightness Sun altitude
Rises 19:46:02 0° 199° (SSW) 2,572 10.4 -16.5°
Reaches altitude 10° 19:48:32 10° 217° (SW) 1,684 9.7 -16.9°
Maximum altitude 19:51:15 20° 265° (W) 1,183 9.5 -17.5°
Drops below altitude 10° 19:53:57 10° 314° (NW) 1,669 10.0 -18.0°
Sets 19:56:25 0° 332° (NNW) 2,543 10.7 -18.4°
